Wind_Speed
13 14 15 16 17 18 18 19 19 19 19 18 18 18 18 17 16 16 15 15 14 14 14 14 14 14 14 15 16 16 17 17 18 18 18 19 20 19 19 18 18 18 18
15 14 15 15 15 15 15 15 15 16 16 17 17 17 17 16 16 15 15 14 14 14 14 15 15 16 16 17 17 18 18 19 20 20 20 21 22 21 21 21 21 21 20
13 11 11 11 10 10 10 10 11 12 13 14 15 16 16 16 16 15 15 15 15 15 16 16 16 17 17 18 18 19 20 21 22 22 23 23 23 23 24 23 23 23 23
8 7 7 7 7 7 7 8 9 9 11 12 14 15 15 16 16 16 16 16 16 17 17 17 17 18 18 18 19 20 21 22 24 24 24 24 24 25 25 25 26 26 26
5 6 6 6 6 6 7 8 9 9 10 12 13 14 14 14 14 14 13 13 13 14 15 16 16 17 18 19 20 21 22 24 25 26 27 26 26 26 26 27 29 29 29
5 6 6 7 7 7 8 9 9 10 10 11 11 12 11 11 11 10 10 10 11 12 13 13 14 16 17 18 19 21 22 24 25 25 26 26 27 27 27 27 28 29 30
4 5 6 6 7 8 9 10 10 10 10 10 11 11 11 11 11 11 11 11 12 13 13 14 14 15 16 17 18 19 21 22 24 24 23 24 26 27 26 26 26 27 27
3 4 5 6 7 8 9 9 9 10 11 12 12 13 13 14 14 14 14 15 15 15 16 16 16 17 17 18 19 20 21 23 25 25 23 24 27 27 27 26 27 27 27
4 5 6 7 7 8 9 10 10 11 12 13 14 15 16 16 16 17 17 18 18 18 18 18 18 18 19 19 20 21 22 24 26 27 24 25 28 28 28 28 28 28 29
5 6 7 7 8 8 9 10 11 13 14 15 16 17 17 18 18 18 18 18 19 19 19 19 19 18 19 19 20 22 23 24 26 27 24 25 28 28 29 30 30 30 30
8 7 8 9 9 10 11 12 13 14 15 16 17 18 18 18 17 17 17 17 17 17 17 18 18 17 18 18 20 21 22 24 26 27 24 25 27 28 29 29 30 30 31
11 10 10 10 11 12 13 13 14 15 16 16 17 18 18 17 16 16 16 16 16 15 16 16 16 16 16 17 18 20 20 23 26 27 24 24 26 28 29 30 31 32 32
13 13 12 13 13 13 14 15 16 16 17 16 17 17 17 16 15 15 15 15 14 14 15 15 15 16 17 17 19 21 22 24 27 29 27 26 27 30 31 32 33 34 35
16 15 15 15 16 16 16 17 17 16 16 16 16 16 16 15 15 14 13 14 14 14 15 16 17 17 18 20 21 22 23 25 28 30 30 30 30 31 34 35 37 38 39
19 18 17 17 17 17 17 18 18 17 17 16 16 15 15 15 15 15 15 16 16 16 16 17 18 18 19 21 22 24 25 27 29 32 32 33 33 34 36 38 41 43 44
20 20 20 19 18 18 19 19 20 19 18 18 17 17 17 16 16 16 16 18 18 19 19 20 20 22 23 25 26 28 29 30 32 34 36 37 38 39 41 43 45 47 49
21 21 22 21 20 20 20 21 22 21 21 20 19 19 19 18 18 18 18 19 21 22 23 25 26 28 30 31 33 35 36 37 39 40 41 43 45 46 47 48 50 51 53
23 22 23 23 22 22 22 24 25 25 24 24 23 22 22 21 21 22 22 23 25 26 27 30 31 33 35 37 38 40 41 44 45 47 48 49 51 53 54 55 56 56 57
25 24 24 26 24 26 26 28 29 29 29 28 28 27 27 26 26 26 26 28 30 31 32 34 36 38 40 42 43 45 47 49 51 53 54 56 57 58 59 60 61 62 62
25 24 25 29 27 29 31 33 34 34 35 34 34 33 32 31 31 30 30 32 34 35 37 39 41 43 45 47 49 51 52 54 56 58 59 61 62 63 64 65 64 65 65
28 27 28 31 31 33 35 37 38 39 40 40 41 39 36 36 34 34 33 35 37 40 41 42 45 47 49 51 53 55 56 58 60 61 63 64 65 66 66 67 66 66 66
38 33 32 34 35 37 39 40 42 43 44 44 45 42 40 39 37 36 37 37 39 42 43 45 48 50 53 55 57 58 58 59 61 63 65 66 66 67 67 67 67 66 64
40 37 35 36 38 40 42 43 45 47 47 47 46 44 44 42 39 37 37 39 42 46 47 49 50 52 54 56 57 58 59 59 60 62 65 66 67 67 68 68 67 65 62
43 40 38 38 40 42 43 45 47 48 48 48 47 46 46 43 39 38 39 42 45 48 49 51 52 53 55 56 57 59 59 60 60 61 63 65 66 67 67 67 65 62 60
42 40 39 39 41 43 45 46 47 49 48 48 47 47 47 45 43 43 43 45 47 49 50 51 53 55 55 57 59 60 61 62 63 63 64 66 67 68 68 66 63 59 58
39 39 39 40 42 44 46 46 47 48 48 48 49 49 48 47 45 45 45 47 48 50 51 52 54 56 57 59 61 62 62 63 64 65 67 68 69 69 67 65 61 59 57
Wind_Direction
267 264 260 259 258 256 254 253 252 248 247 249 250 250 252 254 255 256 255 254 255 256 256 257 258 259 261 262 262 262 261 260 259 258 258 259 261 263 265 267 270 273 275
271 270 265 261 260 258 257 256 253 250 250 251 252 251 253 254 254 255 255 255 255 257 257 256 257 258 260 261 262 262 262 261 261 260 261 263 265 267 268 269 271 273 274
274 274 269 264 262 264 266 267 262 257 255 254 253 253 254 254 254 255 256 257 259 260 260 261 261 261 261 261 261 261 261 260 261 261 263 265 268 268 268 269 270 272 273
274 282 280 278 280 282 283 279 273 267 262 258 257 256 257 256 257 257 258 260 262 263 263 263 264 264 263 261 261 261 261 262 262 263 264 265 266 263 265 268 271 273 273
276 288 290 291 296 299 296 290 284 276 269 264 261 261 261 261 260 260 261 262 262 262 263 263 264 265 264 262 261 261 262 263 264 266 266 268 267 266 267 270 273 274 274
284 291 294 297 299 298 294 290 283 277 271 268 265 263 261 260 260 262 263 264 265 266 266 266 265 265 265 265 264 265 266 268 268 269 271 271 274 276 276 275 276 276 276
305 310 313 313 310 303 296 290 281 273 269 268 267 265 265 264 265 265 266 267 269 271 271 270 269 269 270 270 271 272 274 275 275 275 277 280 280 282 283 281 281 281 280
339 335 334 329 323 316 309 299 284 277 274 273 274 272 272 272 272 272 272 271 272 272 272 272 271 272 274 276 277 278 279 280 280 280 281 284 284 285 286 286 285 284 284
343 342 345 342 336 326 317 309 297 290 286 284 284 282 280 278 277 277 276 274 272 272 271 270 269 270 273 276 278 279 280 281 282 282 284 287 287 288 288 288 287 286 285
332 336 340 340 333 325 318 310 302 296 293 291 289 287 284 282 281 279 277 274 272 272 272 270 269 271 272 276 278 279 280 280 280 280 284 284 285 286 287 287 287 286 285
326 326 331 328 327 321 315 310 304 300 297 293 290 288 286 285 283 280 277 275 273 272 270 268 268 269 271 275 277 278 279 280 280 281 283 283 283 284 284 284 284 283 283
328 326 325 322 320 318 315 312 307 303 300 297 294 291 289 288 283 280 279 276 274 272 270 270 271 273 275 278 280 281 282 283 283 284 286 285 284 284 283 282 281 281 280
331 328 328 325 319 315 313 312 309 307 305 302 300 298 295 293 290 286 283 281 278 277 278 281 283 284 285 284 284 285 285 284 285 287 288 286 284 283 283 282 281 280 279
332 330 329 327 323 316 311 310 309 307 306 306 305 305 305 305 303 299 296 291 290 288 288 289 290 291 290 291 292 291 290 289 288 289 290 290 287 285 284 284 283 282 281
329 327 327 325 321 318 311 310 308 307 307 308 309 310 311 312 310 308 308 303 301 298 295 292 294 295 294 295 296 295 296 295 294 293 293 292 290 288 286 285 284 284 282
322 321 321 321 318 315 311 307 306 305 305 307 307 306 307 310 309 308 306 303 301 298 297 295 294 294 294 295 296 297 296 296 296 296 295 293 290 289 288 286 285 284 284
314 314 313 314 312 309 307 304 302 302 302 303 302 301 301 301 300 300 299 298 296 296 296 295 294 295 294 293 294 295 295 294 294 294 294 292 290 289 287 287 286 285 284
306 308 304 304 305 302 301 299 299 299 297 297 297 295 294 294 294 294 295 294 293 293 294 293 294 295 294 294 293 293 294 294 293 292 291 290 289 288 287 286 285 284 283
300 302 298 296 297 295 296 296 296 296 294 293 292 289 288 288 288 289 292 293 293 294 294 295 295 294 294 293 293 293 293 293 293 292 290 289 288 288 287 285 284 284 283
293 295 292 290 290 289 290 292 293 293 294 292 292 288 285 284 284 285 290 293 294 294 295 296 296 295 294 293 292 291 291 291 291 290 289 288 288 287 287 286 285 284 284
289 295 291 286 285 284 285 287 289 291 292 293 293 291 282 281 279 282 287 289 292 294 295 297 296 295 294 292 291 290 289 289 288 287 286 285 285 286 286 286 286 286 286
289 292 287 282 281 280 281 283 285 288 289 291 293 293 290 285 279 281 286 290 293 294 295 296 295 295 293 292 291 290 289 289 288 288 287 286 286 286 287 288 287 287 287
286 288 285 280 278 279 281 282 283 284 286 289 292 295 296 293 287 286 288 292 294 295 296 296 296 295 294 293 292 292 291 289 289 289 290 290 290 290 290 290 289 289 288
282 283 282 279 279 280 281 281 281 281 284 288 292 297 299 298 294 293 294 296 296 296 297 296 297 296 295 295 294 293 292 291 290 289 290 291 292 292 291 291 290 289 287
277 278 278 278 279 280 281 281 281 283 284 289 293 296 299 299 299 299 297 297 296 297 298 297 298 297 296 295 294 293 293 293 292 292 292 292 293 292 292 292 290 287 283
271 273 276 277 279 280 281 282 283 285 288 291 293 296 296 296 297 299 298 297 297 299 299 298 297 296 295 294 293 293 294 294 295 295 295 294 294 293 293 292 289 286 282
Height
5893 5892 5891 5891 5891 5891 5891 5891 5891 5891 5892 5892 5893 5893 5894 5894 5895 5895 5895 5896 5896 5897 5897 5897 5897 5897 5897 5897 5898 5898 5899 5899 5899 5900 5900 5900 5901 5901 5902 5902 5903 5903 5904
5890 5890 5889 5889 5889 5888 5888 5888 5889 5889 5889 5890 5891 5892 5892 5893 5893 5893 5893 5894 5894 5894 5895 5895 5895 5895 5895 5895 5895 5896 5896 5896 5896 5897 5897 5897 5898 5898 5899 5899 5900 5900 5901
5888 5888 5888 5887 5887 5887 5887 5887 5887 5887 5888 5888 5889 5890 5890 5891 5891 5891 5891 5891 5891 5891 5892 5892 5892 5893 5893 5893 5893 5893 5893 5893 5893 5894 5894 5895 5895 5895 5895 5896 5896 5897 5897
5887 5887 5887 5886 5886 5886 5885 5885 5885 5885 5886 5886 5887 5887 5888 5888 5888 5888 5888 5888 5888 5889 5889 5889 5889 5890 5890 5890 5890 5890 5890 5889 5889 5890 5891 5892 5891 5889 5891 5892 5893 5893 5893
5886 5886 5886 5885 5885 5884 5884 5884 5884 5884 5884 5884 5884 5884 5885 5885 5885 5885 5885 5885 5885 5886 5886 5886 5886 5886 5887 5887 5887 5886 5886 5886 5886 5887 5887 5888 5885 5884 5887 5888 5888 5889 5889
5886 5885 5885 5885 5884 5884 5883 5883 5883 5883 5883 5883 5882 5882 5882 5882 5882 5883 5883 5883 5883 5883 5883 5883 5883 5883 5883 5883 5883 5883 5883 5882 5882 5883 5883 5884 5880 5880 5882 5883 5884 5884 5885
5884 5884 5884 5883 5883 5883 5882 5882 5881 5881 5881 5881 5880 5880 5880 5880 5880 5880 5880 5880 5880 5880 5880 5880 5880 5880 5880 5880 5880 5879 5879 5879 5878 5879 5880 5880 5878 5877 5878 5878 5879 5879 5879
5884 5883 5882 5882 5881 5881 5881 5880 5880 5879 5879 5879 5878 5878 5878 5877 5877 5877 5877 5877 5877 5877 5877 5876 5876 5876 5876 5876 5876 5876 5876 5875 5874 5874 5876 5876 5874 5873 5873 5873 5874 5874 5874
5883 5882 5881 5881 5880 5879 5879 5878 5878 5877 5877 5876 5876 5875 5875 5874 5874 5874 5874 5874 5873 5873 5873 5873 5873 5873 5873 5872 5872 5872 5871 5871 5870 5869 5871 5871 5869 5868 5868 5868 5868 5868 5868
5883 5881 5881 5880 5879 5878 5878 5877 5876 5876 5875 5874 5873 5872 5872 5871 5871 5870 5870 5870 5869 5870 5870 5870 5870 5869 5869 5869 5868 5868 5867 5866 5865 5864 5867 5865 5864 5863 5862 5862 5862 5862 5862
5881 5881 5880 5879 5878 5877 5876 5875 5875 5874 5873 5872 5871 5870 5869 5868 5868 5867 5866 5866 5866 5866 5866 5866 5866 5866 5865 5865 5864 5863 5863 5862 5860 5859 5861 5860 5859 5858 5857 5857 5856 5856 5856
5878 5878 5878 5878 5877 5876 5875 5874 5873 5872 5870 5869 5868 5867 5866 5865 5865 5864 5863 5863 5862 5862 5862 5861 5862 5861 5861 5861 5859 5858 5858 5857 5855 5854 5855 5855 5854 5853 5852 5851 5850 5850 5849
5877 5876 5875 5875 5875 5874 5873 5872 5871 5870 5868 5867 5866 5864 5863 5862 5861 5861 5860 5859 5858 5858 5858 5857 5857 5857 5856 5856 5856 5854 5854 5852 5849 5848 5848 5849 5848 5846 5845 5844 5843 5843 5842
5875 5874 5874 5873 5872 5871 5871 5870 5869 5868 5866 5865 5863 5862 5860 5859 5858 5857 5857 5856 5855 5855 5854 5854 5853 5853 5852 5850 5850 5848 5847 5846 5844 5842 5841 5841 5840 5839 5838 5836 5835 5834 5833
5873 5872 5872 5871 5870 5869 5868 5867 5866 5865 5864 5863 5861 5859 5858 5857 5855 5854 5853 5852 5852 5851 5851 5850 5849 5848 5847 5846 5844 5843 5842 5840 5838 5835 5834 5833 5832 5830 5829 5827 5826 5824 5823
5871 5870 5869 5869 5868 5867 5866 5865 5864 5863 5862 5861 5859 5857 5855 5855 5853 5852 5851 5849 5848 5848 5847 5846 5845 5844 5842 5841 5839 5837 5836 5834 5831 5829 5826 5824 5823 5821 5819 5817 5815 5814 5812
5868 5867 5866 5866 5865 5864 5863 5862 5861 5860 5859 5858 5857 5855 5853 5852 5850 5849 5848 5847 5845 5844 5843 5841 5840 5839 5837 5835 5833 5831 5828 5826 5824 5821 5818 5815 5812 5810 5808 5806 5804 5802 5800
5864 5864 5863 5863 5863 5861 5860 5859 5858 5857 5856 5855 5854 5852 5850 5848 5846 5845 5844 5842 5840 5839 5838 5836 5834 5832 5830 5827 5825 5822 5820 5817 5814 5811 5808 5805 5802 5799 5796 5794 5791 5789 5786
5860 5860 5859 5858 5860 5858 5857 5855 5854 5853 5852 5851 5849 5847 5845 5843 5841 5839 5838 5836 5833 5832 5831 5828 5826 5824 5821 5818 5816 5813 5810 5806 5803 5799 5795 5792 5788 5785 5782 5779 5777 5774 5771
5855 5855 5854 5853 5855 5853 5852 5850 5849 5847 5846 5845 5844 5842 5840 5837 5835 5833 5832 5828 5826 5824 5822 5820 5817 5814 5811 5807 5804 5801 5798 5795 5790 5786 5782 5778 5774 5770 5766 5763 5760 5758 5755
5846 5849 5850 5848 5848 5848 5846 5844 5843 5841 5840 5839 5837 5834 5832 5830 5827 5825 5824 5822 5818 5815 5812 5810 5807 5804 5800 5795 5792 5789 5786 5782 5777 5772 5768 5764 5759 5755 5751 5747 5743 5740 5738
5840 5843 5844 5842 5841 5840 5839 5838 5836 5834 5832 5831 5828 5826 5823 5821 5819 5817 5815 5813 5810 5806 5803 5800 5796 5793 5788 5783 5778 5774 5771 5768 5762 5757 5751 5747 5744 5740 5735 5731 5726 5723 5720
5835 5836 5836 5834 5834 5832 5831 5830 5828 5826 5824 5822 5820 5817 5815 5812 5810 5808 5806 5803 5800 5796 5793 5788 5784 5780 5775 5770 5764 5760 5755 5752 5748 5743 5736 5731 5727 5723 5719 5714 5709 5706 5703
5829 5829 5828 5827 5826 5824 5822 5821 5819 5816 5815 5813 5811 5809 5806 5803 5800 5798 5796 5793 5789 5784 5781 5776 5771 5766 5761 5756 5750 5745 5740 5736 5732 5729 5723 5716 5711 5707 5702 5697 5693 5689 5686
5823 5821 5820 5819 5817 5816 5814 5812 5810 5807 5806 5803 5802 5799 5796 5794 5791 5788 5786 5782 5777 5773 5768 5763 5758 5752 5747 5742 5736 5730 5725 5720 5715 5712 5708 5703 5697 5691 5685 5680 5676 5673 5670
5816 5814 5812 5811 5809 5808 5806 5804 5802 5799 5797 5795 5792 5789 5786 5784 5782 5779 5775 5770 5765 5761 5756 5750 5745 5739 5733 5728 5721 5716 5710 5704 5699 5694 5690 5685 5680 5675 5668 5663 5659 5655 5653